When you browse on this site, cookies collect data to enhance your experience and personalize the content and advertising you see.
Visit our Privacy Policy to learn more. By continuing to use the site, you agree to this use of cookies and data.
  • In Austria
  • List of Countries
  • For 7 days
  • Water Temperature
  • Weather Map
  • News
  • Weather Widgets
  • user-avatar
    Login

    Hourly Weather La Vega

    Today, 26 January, Sunday

    Time Temperature Precipitation Wind Pressure Humidity
    00:00 +12°C° 0.3 mm 0 mps 571 mmHg 97%
    01:00 +12°C° 0 mm 0 mps 570 mmHg 98%
    02:00 +12°C° 0.8 mm 0 mps 570 mmHg 98%
    03:00 +12°C° 0.8 mm 0 mps 570 mmHg 98%
    04:00 +12°C° 0.8 mm 0 mps 570 mmHg 98%
    05:00 +12°C° 0.7 mm 0 mps 570 mmHg 98%
    06:00 +12°C° 0.7 mm 0 mps 570 mmHg 97%
    07:00 +12°C° 0.7 mm 0 mps 571 mmHg 97%
    08:00 +13°C° 0.3 mm 0 mps 571 mmHg 95%
    09:00 +14°C° 0.3 mm 0 mps 572 mmHg 93%
    10:00 +15°C° 0.3 mm 0 mps 573 mmHg 91%
    11:00 +16°C° 0.9 mm 1 mps 573 mmHg 90%
    12:00 +18°C° 0.9 mm 1 mps 572 mmHg 89%
    13:00 +18°C° 0.9 mm 1 mps 572 mmHg 87%
    14:00 +18°C° 1.6 mm 1 mps 571 mmHg 89%
    15:00 +18°C° 1.6 mm 1 mps 571 mmHg 90%
    16:00 +16°C° 1.6 mm 1 mps 570 mmHg 91%
    17:00 +15°C° 1.1 mm 1 mps 570 mmHg 93%
    18:00 +14°C° 1.1 mm 0 mps 570 mmHg 95%
    19:00 +13°C° 1.1 mm 0 mps 570 mmHg 97%
    20:00 +13°C° 0.4 mm 0 mps 570 mmHg 97%
    21:00 +12°C° 0.4 mm 0 mps 571 mmHg 97%
    22:00 +12°C° 0.4 mm 0 mps 571 mmHg 98%
    23:00 +12°C° 0.4 mm 0 mps 571 mmHg 98%

    Tomorrow, 27 January, Monday

    Time Temperature Precipitation Wind Pressure Humidity
    00:00 +12°C° 0.4 mm 0 mps 570 mmHg 98%
    01:00 +12°C° 0.4 mm 0 mps 570 mmHg 98%
    02:00 +12°C° 0.6 mm 0 mps 570 mmHg 98%
    03:00 +12°C° 0.6 mm 0 mps 569 mmHg 98%
    04:00 +12°C° 0.6 mm 0 mps 569 mmHg 98%
    05:00 +12°C° 0.3 mm 0 mps 569 mmHg 98%
    06:00 +12°C° 0.3 mm 0 mps 570 mmHg 98%
    07:00 +12°C° 0.3 mm 0 mps 570 mmHg 97%
    08:00 +13°C° 0.2 mm 0 mps 571 mmHg 94%
    09:00 +14°C° 0.2 mm 0 mps 572 mmHg 91%
    10:00 +16°C° 0.2 mm 1 mps 573 mmHg 89%
    11:00 +16°C° 0.7 mm 1 mps 572 mmHg 87%
    12:00 +18°C° 0.7 mm 1 mps 572 mmHg 86%
    13:00 +19°C° 0.7 mm 1 mps 572 mmHg 84%
    14:00 +18°C° 1 mm 1 mps 571 mmHg 86%
    15:00 +18°C° 1 mm 1 mps 571 mmHg 88%
    16:00 +15°C° 1 mm 0 mps 570 mmHg 89%
    17:00 +15°C° 0.8 mm 0 mps 570 mmHg 92%
    18:00 +14°C° 0.8 mm 0 mps 570 mmHg 94%
    19:00 +13°C° 0.8 mm 0 mps 570 mmHg 96%
    20:00 +12°C° 0.2 mm 0 mps 570 mmHg 96%
    21:00 +12°C° 0.2 mm 0 mps 570 mmHg 96%
    22:00 +12°C° 0.2 mm 0 mps 570 mmHg 96%
    23:00 +12°C° 0.1 mm 0 mps 570 mmHg 96%

    Day after tomorrow, 28 January, Tuesday

    Time Temperature Precipitation Wind Pressure Humidity
    00:00 +11°C° 0.1 mm 0 mps 570 mmHg 96%
    01:00 +11°C° 0.1 mm 0 mps 570 mmHg 96%
    02:00 +11°C° 0.1 mm 0 mps 569 mmHg 96%
    03:00 +11°C° 0.1 mm 0 mps 569 mmHg 96%
    04:00 +11°C° 0.1 mm 0 mps 569 mmHg 97%
    05:00 +11°C° 0 mm 0 mps 569 mmHg 96%
    06:00 +11°C° 0 mm 0 mps 569 mmHg 96%
    07:00 +11°C° 0 mm 0 mps 570 mmHg 95%
    08:00 +13°C° 0 mm 0 mps 571 mmHg 87%
    09:00 +16°C° 0 mm 1 mps 572 mmHg 79%
    10:00 +19°C° 0 mm 1 mps 574 mmHg 71%
    11:00 +20°C° 0.1 mm 1 mps 573 mmHg 69%
    12:00 +20°C° 0.1 mm 1 mps 573 mmHg 67%
    13:00 +21°C° 0.1 mm 1 mps 572 mmHg 64%
    14:00 +20°C° 0.5 mm 1 mps 572 mmHg 70%
    15:00 +19°C° 0.5 mm 1 mps 571 mmHg 76%
    16:00 +19°C° 0.5 mm 1 mps 570 mmHg 81%
    17:00 +16°C° 0.7 mm 1 mps 569 mmHg 86%
    18:00 +14°C° 0.7 mm 0 mps 569 mmHg 91%
    19:00 +13°C° 0.7 mm 0 mps 569 mmHg 96%
    20:00 +13°C° 0.2 mm 0 mps 569 mmHg 96%
    21:00 +12°C° 0.2 mm 0 mps 570 mmHg 97%
    22:00 +12°C° 0.2 mm 0 mps 570 mmHg 97%
    23:00 +12°C° 0.1 mm 0 mps 570 mmHg 97%

    29 January, Wednesday

    Time Temperature Precipitation Wind Pressure Humidity
    00:00 +12°C° 0.1 mm 0 mps 570 mmHg 97%
    01:00 +12°C° 0.1 mm 0 mps 569 mmHg 97%
    02:00 +12°C° 0.1 mm 0 mps 569 mmHg 97%
    03:00 +11°C° 0.1 mm 0 mps 569 mmHg 97%
    04:00 +11°C° 0.1 mm 0 mps 568 mmHg 97%
    05:00 +11°C° 0.1 mm 0 mps 569 mmHg 97%
    06:00 +12°C° 0.1 mm 0 mps 569 mmHg 96%
    07:00 +12°C° 0.1 mm 0 mps 570 mmHg 96%
    08:00 +13°C° 0.1 mm 0 mps 571 mmHg 90%
    09:00 +16°C° 0.1 mm 1 mps 572 mmHg 83%
    10:00 +19°C° 0.1 mm 1 mps 573 mmHg 77%
    11:00 +19°C° 0.4 mm 1 mps 572 mmHg 77%
    12:00 +19°C° 0.4 mm 1 mps 572 mmHg 77%
    13:00 +20°C° 0.4 mm 1 mps 571 mmHg 78%
    14:00 +19°C° 0.7 mm 1 mps 571 mmHg 80%
    15:00 +19°C° 0.7 mm 1 mps 570 mmHg 83%
    16:00 +18°C° 0.7 mm 1 mps 569 mmHg 86%
    17:00 +15°C° 0.7 mm 0 mps 569 mmHg 89%
    18:00 +14°C° 0.7 mm 0 mps 569 mmHg 93%
    19:00 +13°C° 0.7 mm 0 mps 569 mmHg 96%
    20:00 +12°C° 0.2 mm 0 mps 569 mmHg 96%
    21:00 +12°C° 0.2 mm 0 mps 569 mmHg 96%
    22:00 +12°C° 0.2 mm 0 mps 569 mmHg 95%
    23:00 +11°C° 0 mm 0 mps 569 mmHg 96%

    30 January, Thursday

    Time Temperature Precipitation Wind Pressure Humidity
    00:00 +11°C° 0 mm 0 mps 569 mmHg 96%
    01:00 +11°C° 0 mm 0 mps 568 mmHg 96%
    02:00 +11°C° 0 mm 0 mps 568 mmHg 96%
    03:00 +11°C° 0 mm 0 mps 568 mmHg 96%
    04:00 +10°C° 0 mm 0 mps 568 mmHg 96%
    05:00 +11°C° 0 mm 0 mps 568 mmHg 95%
    06:00 +11°C° 0 mm 0 mps 569 mmHg 95%
    07:00 +11°C° 0 mm 0 mps 569 mmHg 94%
    08:00 +14°C° 0 mm 1 mps 570 mmHg 85%
    09:00 +18°C° 0 mm 1 mps 572 mmHg 77%
    10:00 +20°C° 0 mm 1 mps 573 mmHg 68%
    11:00 +20°C° 0.2 mm 1 mps 573 mmHg 67%
    12:00 +21°C° 0.2 mm 1 mps 572 mmHg 65%
    13:00 +22°C° 0.2 mm 1 mps 572 mmHg 64%
    14:00 +21°C° 0.8 mm 1 mps 571 mmHg 70%
    15:00 +20°C° 0.8 mm 1 mps 570 mmHg 77%
    16:00 +19°C° 0.8 mm 1 mps 569 mmHg 83%
    17:00 +18°C° 0.8 mm 1 mps 569 mmHg 87%
    18:00 +15°C° 0.8 mm 1 mps 569 mmHg 91%
    19:00 +13°C° 0.8 mm 0 mps 569 mmHg 96%
    20:00 +12°C° 0.2 mm 0 mps 569 mmHg 95%
    21:00 +13°C° 0.2 mm 1 mps 569 mmHg 95%
    22:00 +13°C° 0.2 mm 1 mps 569 mmHg 95%
    23:00 +12°C° 0.1 mm 1 mps 569 mmHg 95%

    31 January, Friday

    Time Temperature Precipitation Wind Pressure Humidity
    00:00 +12°C° 0.1 mm 1 mps 569 mmHg 95%
    01:00 +12°C° 0.1 mm 1 mps 568 mmHg 94%
    02:00 +12°C° 0 mm 1 mps 568 mmHg 94%
    03:00 +12°C° 0 mm 1 mps 568 mmHg 94%
    04:00 +12°C° 0 mm 1 mps 568 mmHg 95%
    05:00 +12°C° 0 mm 1 mps 568 mmHg 94%
    06:00 +12°C° 0 mm 1 mps 569 mmHg 94%
    07:00 +12°C° 0 mm 1 mps 569 mmHg 93%
    08:00 +14°C° 0 mm 1 mps 570 mmHg 86%
    09:00 +16°C° 0 mm 1 mps 571 mmHg 78%
    10:00 +19°C° 0 mm 1 mps 573 mmHg 70%
    11:00 +20°C° 0.1 mm 1 mps 573 mmHg 65%
    12:00 +21°C° 0.1 mm 1 mps 572 mmHg 60%
    13:00 +22°C° 0.1 mm 1 mps 572 mmHg 56%
    14:00 +22°C° 0.4 mm 1 mps 572 mmHg 59%
    15:00 +21°C° 0.4 mm 1 mps 571 mmHg 63%
    16:00 +21°C° 0.4 mm 1 mps 570 mmHg 67%
    17:00 +19°C° 0.7 mm 1 mps 570 mmHg 76%
    18:00 +16°C° 0.7 mm 1 mps 569 mmHg 86%
    19:00 +14°C° 0.7 mm 1 mps 569 mmHg 96%
    20:00 +13°C° 0.2 mm 1 mps 569 mmHg 95%
    21:00 +13°C° 0.2 mm 1 mps 569 mmHg 94%
    22:00 +13°C° 0.2 mm 1 mps 570 mmHg 94%
    23:00 +12°C° 0 mm 1 mps 569 mmHg 93%
    Show more